{"data":{"norad_id":58855,"epoch":"2026-05-25T02:42:18.207072Z","epoch_age_seconds":61932,"freshness":"FRESH","line1":"1 58855U 24019C   26145.11271073 -.00002070  00000+0 -65713-4 0  9993","line2":"2 58855  43.0002 177.0583 0001203 268.5238  91.5476 15.27576227130777","mean_motion":15.27576227,"eccentricity":0.0001203,"inclination_deg":43.0002,"raan_deg":177.0583,"arg_perigee_deg":268.5238,"mean_anomaly_deg":91.5476,"bstar":-6.5713e-5,"rev_number":13077,"period_min":94.26698154553,"perigee_km":482.23499173576,"apogee_km":483.88579582871,"semimajor_km":6861.1973937822,"source":"CELESTRAK","updated_at":"2026-05-25T13:38:18.757735Z"}}